Startseite
Über Mich
AHP4
Galerie
Sehschlangen
Tourenbuch
Bookmarks
Elektronik
Bewertung
Geschichten
[Tagesmessung] [Jahreswerte] [Information]

Messwerte vom 20.03.2022

Die letzten Messwerte von 23:58:45 Uhr:
KategorieMesswert
Temperatur [°C]5
Luftdruck [mBar]1017
Sonneneinstrahlung0
Wind [km/h]5 aus
Niederschlag [l/m²]0
rel.Luftfeucht.44.1%
CO2 [ppm]893

Diagramme
Messwerte vom 20.03.2022
Tagesaggregation
KategorieMinimumMaximumSchnittSumme
Temperatur [°C]-1156.5188
Luftdruck [mBar]101610231018.6146
Sonneneinstrahlung246107.7646
Wind [km/h]29
rF [%]24.582.447.46
Niederschlag [l/m²]0
CO2 [ppm]58617231099.3
Einordnung alsFrosttag
Vegetationstag

Messungen an benachbarten Tagen: Zur Jahresaggregation 2022
Tabelle aller Messwerte
UhrzeitTemperatur [°C]Luftdruck [mBar]SonneWind [km/h]RichtungRegen [l/m²]rF [%]CO2 [ppm]
00:01:49 3 1023 0 2 S 0 82.4 1723
00:04:51 3 1022 0 9 NO 0 81.9 1669
00:07:48 3 1022 0 4 O 0 81 1644
00:10:48 3 1023 0 1 NO 0 80.8 1618
00:13:47 3 1022 0 5 O 0 80.8 1594
00:16:47 3 1022 0 5 NO 0 81 1572
00:19:48 3 1022 0 5 SO 0 81.1 1537
00:22:45 3 1022 0 1 O 0 81.3 1514
00:25:47 3 1022 0 5 N 0 81.3 1512
00:28:51 3 1022 0 2 NO 0 80.8 1486
00:31:47 3 1022 0 7 NO 0 80 1470
00:34:49 3 1022 0 2 NO 0 79.2 1452
00:37:49 3 1022 0 6 O 0 78.8 1442
00:40:48 2 1022 0 2 SO 0 78.3 1434
00:43:47 2 1023 0 5 SW 0 78.4 1399
00:46:47 2 1021 0 4 O 0 78.5 1361
00:49:47 2 1022 0 5 0 78.8 1351
00:52:47 2 1022 0 4 S 0 79.2 1354
00:55:47 2 1021 0 6 NO 0 79.5 1344
00:58:48 2 1021 0 5 NO 0 79.4 1323
01:01:47 2 1022 0 3 SO 0 79.3 1299
01:04:48 2 1022 0 7 NO 0 79.1 1295
01:07:50 2 1021 0 2 NO 0 79.1 1288
01:10:47 2 1021 0 5 W 0 78.8 1274
01:13:47 2 1021 0 5 NW 0 78.6 1251
01:16:46 2 1021 0 4 SW 0 78.4 1230
01:19:50 2 1021 0 6 NO 0 78.2 1220
01:22:45 2 1021 0 5 NO 0 77.7 1211
01:25:45 2 1021 0 1 N 0 77.1 1195
01:28:48 2 1021 0 1 NW 0 76.4 1178
01:31:50 2 1021 0 7 SO 0 75.9 1176
01:34:48 2 1021 0 5 NW 0 75.4 1170
01:37:45 2 1021 0 4 0 75.1 1157
01:40:49 2 1021 0 3 W 0 74.8 1146
01:43:46 2 1021 0 4 S 0 74.5 1126
01:46:45 2 1021 0 10 O 0 74.4 1101
01:49:46 2 1021 0 6 NO 0 74.2 1099
01:52:47 2 1021 0 2 NO 0 73.6 1099
01:55:49 2 1021 0 2 SO 0 73.6 1098
01:58:49 2 1021 0 7 NO 0 73.8 1106
02:01:45 2 1021 0 2 0 73.8 1107
02:04:48 2 1021 0 6 N 0 73.6 1106
02:07:48 2 1021 0 4 NO 0 73.6 1085
02:10:46 2 1021 0 5 O 0 73.8 1084
02:13:45 2 1021 0 4 S 0 73.7 1071
02:16:46 2 1021 0 3 NO 0 73.6 1078
02:19:49 2 1021 0 4 O 0 73.6 1083
02:22:45 2 1021 0 5 N 0 73.4 1090
02:25:47 2 1021 0 1 O 0 73.4 1107
02:28:47 1 1021 0 2 O 0 73.3 1129
02:31:47 2 1021 0 9 S 0 73 1143
02:34:47 1 1021 0 6 O 0 72.7 1154
02:37:47 1 1021 0 5 NO 0 72.4 1170
02:40:49 1 1021 0 4 SO 0 72.2 1181
02:43:47 1 1021 0 4 SO 0 72.3 1183
02:46:48 1 1021 0 1 SO 0 72.1 1177
02:49:47 1 1021 0 1 NO 0 72 1186
02:52:47 1 1021 0 1 O 0 71.8 1198
02:55:49 1 1021 0 1 SO 0 71.5 1221
02:58:46 1 1021 0 3 O 0 71.4 1232
03:01:47 1 1021 0 2 NO 0 71.5 950
03:04:48 1 1021 0 3 SW 0 71.5 849
03:07:45 1 1021 0 3 SO 0 71.3 1134
03:10:49 1 1021 0 3 SO 0 71.2 1169
03:13:47 1 1021 0 3 NO 0 71.1 1126
03:16:48 1 1021 0 1 SW 0 70.9 1129
03:19:47 1 1021 0 4 O 0 70.6 1155
03:22:49 1 1021 0 3 SW 0 70.2 1168
03:25:50 1 1021 0 3 NW 0 70.2 1190
03:28:47 1 1021 0 7 NO 0 69.2 1226
03:31:48 1 1021 0 1 O 0 69 1233
03:34:49 1 1021 0 6 NW 0 68.8 1241
03:37:46 1 1021 0 1 N 0 68.2 1228
03:40:46 1 1020 0 4 0 67.6 1237
03:43:46 1 1021 0 8 O 0 67.6 1242
03:46:47 1 1021 0 5 SO 0 67.4 1260
03:49:47 1 1021 0 6 0 67.4 1275
03:52:47 1 1021 0 15 O 0 67.2 1302
03:55:47 1 1021 0 8 NO 0 67.2 1317
03:58:47 1 1021 0 5 SO 0 67.2 1330
04:01:46 1 1021 0 1 S 0 67.3 1337
04:04:48 1 1020 0 2 O 0 67.7 1332
04:07:46 1 1021 0 1 O 0 67.9 1326
04:10:47 1 1021 0 1 S 0 67.9 1305
04:13:46 1 1021 0 1 NW 0 68 1319
04:16:48 0 1020 0 1 SO 0 68.6 1329
04:19:47 0 1021 0 4 S 0 69.1 1338
04:22:47 0 1020 0 1 NW 0 69.3 1337
04:25:48 0 1021 0 0 SO 0 69.7 1354
04:28:46 0 1020 0 1 O 0 70.1 1361
04:31:47 0 1021 0 1 NO 0 70.4 1382
04:34:47 0 1020 0 1 O 0 70.5 1391
04:37:48 0 1021 0 1 N 0 70.4 1407
04:40:47 0 1020 0 0 NO 0 70.3 1424
04:43:47 0 1020 0 4 SO 0 70 1436
04:46:46 0 1021 0 1 O 0 69.7 1446
04:49:49 0 1021 0 1 SO 0 69.9 1454
04:52:47 -1 1020 0 0 N 0 70 1458
04:55:46 -1 1021 0 1 O 0 70.3 1455
04:58:45 -1 1021 0 0 S 0 70.4 1461
05:01:48 -1 1020 0 1 NO 0 70.4 1463
05:04:47 -1 1020 0 3 NO 0 70.5 1479
05:07:48 -1 1021 0 2 SO 0 70.6 1487
05:10:47 -1 1021 0 1 NO 0 69.9 1499
05:13:47 -1 1020 0 0 O 0 69.5 1504
05:16:47 -1 1020 0 1 N 0 69.1 1499
05:19:47 -1 1021 0 1 NO 0 69.3 1504
05:22:48 -1 1020 0 1 SO 0 69.8 1479
05:25:47 -1 1020 0 1 O 0 70.2 1462
05:28:47 -1 1020 0 0 N 0 70.4 1455
05:31:46 -1 1021 0 0 N 0 70.4 1480
05:34:46 -1 1021 0 1 N 0 70.6 1490
05:37:48 -1 1020 0 0 SO 0 71.1 1487
05:40:48 -1 1020 0 3 N 0 71.2 1485
05:43:47 -1 1020 0 1 NO 0 71.1 1491
05:46:48 -1 1020 0 3 SO 0 70.6 1478
05:49:48 -1 1020 0 3 NO 0 69.9 1487
05:52:49 -1 1020 0 1 W 0 69 1486
05:55:48 0 1020 3 3 NO 0 68.5 1498
05:58:46 0 1020 5 1 O 0 67.9 1505
06:01:50 0 1021 9 1 SO 0 66.7 1510
06:04:47 0 1020 14 4 O 0 66.2 1475
06:07:50 0 1020 22 6 NO 0 65.9 1435
06:10:46 0 1020 31 2 N 0 65.7 1408
06:13:48 0 1020 42 5 N 0 65.1 1406
06:16:48 0 1020 55 3 O 0 64.9 1401
06:19:48 0 1020 67 3 NO 0 64.5 1306
06:22:48 0 1020 80 5 N 0 64.3 1222
06:25:49 0 1020 91 3 O 0 64 1227
06:28:48 0 1020 102 4 NO 0 63.7 1267
06:31:48 0 1020 112 7 O 0 63.5 1289
06:34:50 0 1020 120 12 NO 0 63.4 1304
06:37:48 0 1020 128 8 N 0 62.7 1307
06:40:49 1 1020 135 4 NW 0 62.2 1310
06:43:47 1 1021 142 5 O 0 61.6 1326
06:46:48 1 1020 147 4 NO 0 61.5 1334
06:49:48 1 1020 152 2 O 0 61.4 1342
06:52:48 1 1020 156 5 O 0 61.2 1345
06:55:49 1 1020 159 4 S 0 61.2 1324
06:58:48 1 1020 163 2 O 0 61.6 1324
07:01:50 1 1020 166 3 NO 0 61.6 1318
07:04:50 1 1021 168 3 O 0 61.4 1334
07:07:48 1 1020 171 3 O 0 61.3 1321
07:10:50 1 1020 173 2 NO 0 61.3 1302
07:13:47 1 1020 175 3 O 0 61.3 1297
07:16:50 1 1020 176 7 NO 0 61 1297
07:19:49 1 1020 178 7 NO 0 60.9 1308
07:22:49 1 1020 179 6 NO 0 60.6 1293
07:25:49 1 1020 181 5 NO 0 60.5 1291
07:28:49 1 1020 182 3 NO 0 60.3 1274
07:31:48 1 1020 183 1 O 0 60.1 1277
07:34:49 1 1020 184 2 S 0 60 1263
07:37:51 1 1020 185 6 S 0 60 1265
07:40:48 1 1021 185 3 NO 0 59.3 1258
07:43:47 1 1020 186 3 O 0 59.6 1272
07:46:47 1 1020 187 6 N 0 60 1268
07:49:47 1 1020 187 3 O 0 60.1 1271
07:52:47 2 1020 188 2 S 0 59.6 1263
07:55:49 2 1020 189 2 O 0 59.1 1255
07:58:50 2 1020 189 5 NO 0 59.1 1258
08:01:48 2 1020 190 3 O 0 58.9 1266
08:04:49 2 1020 190 2 O 0 57.9 1267
08:07:49 2 1020 190 5 SO 0 57.8 1262
08:10:47 2 1021 191 5 N 0 57.5 1263
08:13:47 2 1020 191 2 O 0 57.4 1271
08:16:48 3 1020 192 4 NO 0 56.8 1277
08:19:47 3 1020 192 4 N 0 56.1 1273
08:22:47 3 1020 192 7 O 0 56.1 1276
08:25:48 3 1020 193 4 NO 0 55.3 1272
08:28:51 3 1020 193 7 NO 0 55 1274
08:31:48 3 1020 193 5 O 0 54.7 1285
08:34:49 3 1020 194 7 O 0 54.3 1282
08:37:48 3 1020 194 6 S 0 54.1 1274
08:40:49 3 1020 194 4 SO 0 54.4 1241
08:43:49 4 1021 194 4 SO 0 54.4 1240
08:46:48 4 1020 195 4 N 0 54.4 1248
08:49:49 4 1020 195 3 O 0 54.6 1257
08:52:47 4 1021 195 2 NO 0 54.1 1258
08:55:47 4 1020 195 2 O 0 54 1253
08:58:46 4 1020 195 4 N 0 53.9 1238
09:01:46 4 1020 196 3 N 0 53.6 1246
09:04:51 4 1020 196 4 SO 0 52.7 1228
09:07:49 5 1020 196 7 SW 0 52.2 1227
09:10:51 5 1021 196 10 W 0 51.9 1226
09:13:50 5 1020 197 0 NO 0 51.9 1234
09:16:48 5 1020 197 6 SO 0 51.3 1222
09:19:48 5 1020 197 0 SO 0 51.4 1210
09:22:46 5 1020 197 7 S 0 51.2 1202
09:25:49 5 1020 198 5 SO 0 50.7 1200
09:28:48 5 1020 199 2 SW 0 50.7 1203
09:31:47 5 1020 199 3 O 0 50.4 1210
09:34:50 6 1020 200 11 O 0 50.8 1206
09:37:49 6 1020 200 4 SW 0 49.9 1222
09:40:50 6 1020 201 6 NO 0 49.6 1206
09:43:51 6 1020 202 3 O 0 50.2 1224
09:46:49 6 1019 202 10 O 0 49.3 1223
09:49:47 6 1020 203 4 S 0 48.7 1227
09:52:49 6 1020 204 6 NO 0 48.7 1232
09:55:48 6 1020 204 7 0 48.5 1239
09:58:52 7 1020 205 6 NW 0 48.1 1235
10:01:49 7 1020 205 6 S 0 47.8 1239
10:04:49 7 1020 205 6 SO 0 47.6 1225
10:07:49 7 1019 205 2 S 0 47.1 1223
10:10:49 7 1020 205 4 W 0 47.1 1232
10:13:48 7 1020 206 10 O 0 45.9 1245
10:16:50 7 1020 206 4 O 0 46 1239
10:19:48 7 1019 206 8 NO 0 46.6 1236
10:22:48 8 1019 206 7 S 0 46.5 1249
10:25:49 8 1019 207 7 O 0 45.2 1262
10:28:48 8 1019 207 7 O 0 45.2 1263
10:31:46 8 1019 207 8 N 0 45.3 1272
10:34:49 8 1020 207 10 NO 0 44.1 1274
10:37:48 8 1019 207 5 SW 0 44.3 1271
10:40:49 8 1019 207 5 SO 0 43.2 1266
10:43:49 8 1019 208 7 SW 0 43.2 1269
10:46:48 9 1019 208 5 O 0 41.9 1259
10:49:47 9 1019 208 7 N 0 41.6 1256
10:52:47 9 1018 208 4 W 0 40.8 1266
10:55:49 9 1019 208 13 O 0 41.9 1258
10:58:48 9 1018 208 7 0 41.4 1250
11:01:49 9 1019 208 4 W 0 40.9 1229
11:04:49 9 1019 208 19 O 0 39.4 1230
11:07:49 9 1018 208 7 SW 0 38.9 1222
11:10:50 9 1018 209 9 S 0 38.9 1215
11:13:49 10 1018 208 8 SO 0 38.7 1223
11:16:49 10 1018 209 8 SW 0 38.2 1222
11:19:48 10 1018 208 13 N 0 37.9 1222
11:22:50 10 1018 208 12 SW 0 36.9 1233
11:25:49 10 1017 209 4 NW 0 36.5 1239
11:28:48 10 1018 209 14 NO 0 34.6 1231
11:31:48 10 1018 209 10 SO 0 34.1 1220
11:34:49 11 1017 209 12 0 34.6 1217
11:37:48 11 1017 209 10 O 0 33.5 1201
11:40:49 11 1017 210 12 SO 0 31.8 1200
11:43:49 11 1018 210 6 N 0 31.6 1186
11:46:46 12 1017 210 6 O 0 31.8 1187
11:49:47 12 1018 211 8 S 0 31.5 1191
11:52:48 12 1017 212 11 NO 0 30.7 1200
11:55:49 12 1017 212 12 S 0 29.7 1181
11:58:51 12 1017 213 15 SO 0 30.5 1182
12:01:49 12 1017 213 11 O 0 30.9 1168
12:04:51 12 1017 214 27 NW 0 29 1169
12:07:49 12 1017 214 15 NO 0 28.8 1157
12:10:48 12 1017 215 16 O 0 28.9 1153
12:13:50 12 1017 216 9 S 0 29.1 1150
12:16:49 12 1017 216 7 NW 0 30 1142
12:19:47 13 1018 217 5 0 30.5 1141
12:22:49 13 1017 217 13 O 0 31.8 1151
12:25:48 13 1017 218 15 NW 0 31.1 1162
12:28:49 13 1017 218 6 SO 0 29.4 1138
12:31:49 13 1017 218 14 SO 0 30.2 1136
12:34:48 13 1017 219 6 W 0 30.7 1130
12:37:48 13 1017 219 5 N 0 30.4 1146
12:40:50 13 1017 219 9 N 0 29.8 1152
12:43:50 13 1017 220 15 SO 0 29.3 1147
12:46:49 13 1017 222 8 S 0 28.8 1173
12:49:49 13 1017 224 5 0 28.2 1178
12:52:49 13 1017 225 8 NO 0 29 1169
12:55:50 13 1017 226 9 NO 0 30.1 1146
12:58:48 13 1017 228 11 NO 0 30.1 1145
13:01:50 13 1017 229 13 NO 0 29.8 1140
13:04:48 13 1017 229 10 W 0 28.7 1145
13:07:50 13 1017 230 14 SO 0 29.7 1144
13:10:49 14 1017 230 5 SW 0 30.3 1148
13:13:51 14 1017 230 22 SO 0 29.5 1148
13:16:50 14 1017 230 12 O 0 29.2 1147
13:19:32 13 1017 230 12 SO 0 40 1151
13:22:54 15 1017 230 23 SW 0 24.9 1157
13:25:49 15 1017 230 8 N 0 25.1 1160
13:28:50 15 1017 231 17 SW 0 25.5 1182
13:31:47 15 1017 231 9 NO 0 25.9 1205
13:34:48 14 1017 231 7 SO 0 25.3 1233
13:37:47 14 1017 233 20 O 0 25.8 1220
13:40:49 14 1017 234 10 SW 0 24.6 1187
13:43:50 14 1017 224 29 S 0 26.9 847
13:46:47 14 1017 236 11 NO 0 27.4 738
13:49:48 14 1017 240 8 O 0 26.9 891
13:52:50 14 1017 242 12 NW 0 26.7 941
13:55:48 14 1017 242 10 N 0 27.4 951
13:58:48 14 1017 243 15 NW 0 27.1 957
14:01:49 14 1017 243 11 NW 0 26.7 982
14:04:49 14 1017 243 5 NW 0 26.3 1009
14:07:48 14 1017 244 17 O 0 25.4 1050
14:10:50 14 1017 244 7 S 0 26 1079
14:13:50 14 1017 244 12 SW 0 25.7 1095
14:16:49 14 1017 244 11 NW 0 26.7 1090
14:19:51 14 1017 244 15 SO 0 26.2 1093
14:22:48 14 1017 245 8 O 0 26.2 1103
14:25:50 14 1017 245 11 NO 0 26.5 1110
14:28:48 14 1017 245 15 SO 0 26 1107
14:31:50 14 1017 245 26 NW 0 24.5 1102
14:34:49 14 1017 245 5 NW 0 25.2 1096
14:37:48 14 1017 245 14 O 0 25.2 1089
14:40:50 14 1017 245 8 SO 0 24.9 1100
14:43:48 14 1017 245 7 W 0 26 1113
14:46:48 14 1017 246 16 O 0 24.7 1118
14:49:49 14 1017 246 8 O 0 25.3 1135
14:52:49 14 1017 246 14 S 0 26.1 1154
14:55:51 14 1016 246 13 SW 0 25.8 1164
14:58:49 13 1017 246 13 S 0 25.9 1159
15:01:48 13 1017 246 12 N 0 25.8 1140
15:04:52 13 1017 246 12 S 0 25.7 1123
15:07:51 13 1016 246 12 SO 0 25.6 1118
15:10:51 13 1017 246 15 SO 0 25 1123
15:13:47 13 1016 246 17 0 25.1 1113
15:16:49 13 1016 246 19 SO 0 26.1 1104
15:19:50 13 1017 246 7 SO 0 26.8 1090
15:22:50 14 1017 246 12 NO 0 26.9 1089
15:25:46 14 1017 246 7 N 0 27.2 1113
15:28:48 14 1017 246 7 O 0 27.1 1120
15:31:48 14 1017 246 6 SO 0 26.5 1130
15:34:48 14 1017 246 8 NO 0 26.5 1128
15:37:48 13 1017 246 7 S 0 27 1124
15:40:48 14 1017 246 13 N 0 27.4 1126
15:43:47 14 1017 246 8 SW 0 26.9 1131
15:46:47 14 1017 246 9 SW 0 26.8 1135
15:49:47 13 1017 246 5 S 0 26.2 1137
15:52:49 14 1017 245 1 NO 0 26.2 1139
15:55:49 14 1017 244 6 S 0 26.4 1162
15:58:49 13 1017 242 22 O 0 25.9 1164
16:01:47 13 1017 244 8 0 25.9 1175
16:04:49 13 1017 242 10 S 0 26.1 1163
16:07:47 13 1016 241 11 NO 0 26.6 1154
16:10:49 13 1017 242 14 SW 0 26.5 1165
16:13:47 13 1016 241 16 N 0 26.5 1169
16:16:48 13 1017 239 8 NO 0 26 1184
16:19:48 13 1016 239 8 NO 0 25.9 1184
16:22:48 13 1017 243 11 O 0 26.2 1124
16:25:48 13 1017 240 19 S 0 26 1016
16:28:50 13 1017 238 5 O 0 26 1036
16:31:49 13 1017 238 9 NW 0 26 740
16:34:50 13 1017 243 5 NO 0 26.1 586
16:37:50 13 1017 242 14 NO 0 26.1 736
16:40:48 13 1017 244 6 NO 0 26 869
16:43:47 13 1017 238 4 S 0 27.2 873
16:46:48 13 1017 240 7 NW 0 27.7 848
16:49:46 12 1017 238 6 N 0 27.7 811
16:52:50 12 1017 236 3 SW 0 27.6 794
16:55:49 12 1017 235 23 O 0 27.3 780
16:58:46 12 1017 237 6 S 0 27 768
17:01:50 12 1017 242 11 SO 0 27.9 763
17:04:48 12 1017 238 13 O 0 27.9 758
17:07:50 12 1017 231 0 SW 0 27.8 747
17:10:50 12 1017 230 3 SW 0 28.5 741
17:13:50 12 1017 231 15 SO 0 28.6 739
17:16:47 12 1017 227 2 N 0 28.4 740
17:19:46 11 1017 230 4 O 0 29.1 736
17:22:47 11 1017 224 3 O 0 30.4 729
17:25:45 11 1017 224 4 N 0 31.2 733
17:28:47 11 1017 218 6 SO 0 31.2 729
17:31:50 11 1017 215 4 SW 0 30.9 732
17:34:49 11 1017 215 5 SO 0 30.9 732
17:37:46 11 1017 216 4 N 0 31 726
17:40:49 11 1016 211 6 O 0 31.4 716
17:43:49 11 1017 208 12 SO 0 31.9 721
17:46:47 11 1017 206 13 N 0 32.1 718
17:49:47 10 1017 204 5 N 0 32.5 717
17:52:48 10 1017 201 4 S 0 32.3 704
17:55:47 10 1017 198 5 0 32.1 697
17:58:48 10 1017 194 9 NO 0 32.3 697
18:01:48 10 1017 190 8 N 0 32.2 701
18:04:45 10 1017 185 6 0 32.1 697
18:07:48 10 1017 180 1 NO 0 32.6 694
18:10:50 10 1017 173 3 O 0 32.6 692
18:13:47 10 1017 166 1 S 0 32.7 682
18:16:50 10 1017 158 3 O 0 32.8 680
18:19:49 10 1017 149 9 W 0 33.2 687
18:22:49 9 1017 138 7 W 0 33.7 687
18:25:47 9 1017 126 11 O 0 33.7 681
18:28:49 9 1016 114 8 SO 0 33.7 676
18:31:47 9 1017 101 9 N 0 33.9 691
18:34:46 9 1017 86 8 S 0 34 691
18:37:47 9 1017 71 1 NO 0 33.8 700
18:40:46 9 1017 55 5 0 33.9 701
18:43:48 9 1017 40 2 SO 0 34 698
18:46:46 9 1017 28 1 0 34.4 691
18:49:46 9 1017 18 5 N 0 34.5 695
18:52:48 9 1017 11 5 O 0 34.6 700
18:55:45 9 1017 8 7 O 0 34.4 706
18:58:44 9 1017 5 4 N 0 34.4 704
19:01:49 9 1017 3 3 SO 0 34.4 671
19:04:47 9 1017 0 1 NO 0 34.4 648
19:07:47 9 1017 0 2 N 0 34.6 648
19:10:45 9 1017 0 8 SO 0 34.9 671
19:13:48 8 1017 0 9 NO 0 34.9 694
19:16:45 9 1017 0 9 0 34.8 720
19:19:48 9 1017 0 4 SW 0 34.7 727
19:22:46 8 1017 0 3 SO 0 34.5 735
19:25:45 8 1017 0 2 S 0 34.7 740
19:28:47 8 1017 0 10 NO 0 34.6 753
19:31:46 8 1017 0 10 SO 0 34.6 754
19:34:46 8 1017 0 6 SO 0 34.1 750
19:37:47 8 1017 0 5 SO 0 34.3 751
19:40:48 8 1017 0 5 SO 0 34.5 754
19:43:47 8 1017 0 4 O 0 34.4 763
19:46:46 8 1017 0 9 N 0 34.6 773
19:49:46 8 1017 0 14 O 0 34.7 779
19:52:47 8 1017 0 18 O 0 34.9 782
19:55:47 8 1017 0 3 NW 0 34.9 788
19:58:49 8 1017 0 2 SO 0 34.9 785
20:01:47 8 1017 0 10 O 0 34.8 788
20:04:47 8 1017 0 4 SO 0 34.6 791
20:07:47 8 1017 0 4 SW 0 34.6 789
20:10:49 8 1017 0 18 NO 0 34.6 788
20:13:47 8 1017 0 4 SO 0 34.8 785
20:16:46 8 1017 0 2 SO 0 34.4 791
20:19:46 8 1017 0 5 NO 0 34.7 791
20:22:48 8 1017 0 7 NO 0 34.7 789
20:25:47 8 1017 0 9 O 0 34.8 799
20:28:45 8 1017 0 2 S 0 34.6 796
20:31:48 8 1017 0 4 SW 0 34.8 793
20:34:45 8 1017 0 6 O 0 34.8 794
20:37:48 8 1017 0 9 NO 0 34.9 789
20:40:47 8 1017 0 9 O 0 35 794
20:43:48 8 1017 0 3 NO 0 35 797
20:46:44 8 1017 0 9 S 0 35.1 796
20:49:46 8 1017 0 7 NW 0 35.4 807
20:52:47 8 1017 0 4 N 0 35.4 815
20:55:46 8 1017 0 0 SO 0 35.4 820
20:58:46 8 1017 0 3 NO 0 35.7 817
21:01:48 8 1017 0 8 SO 0 35.6 814
21:04:44 8 1017 0 2 O 0 35.5 819
21:07:47 8 1017 0 20 W 0 35.7 819
21:10:47 7 1017 0 5 O 0 36.2 813
21:13:45 7 1017 0 3 O 0 36.5 811
21:16:46 7 1017 0 10 N 0 36.8 806
21:19:46 7 1017 0 9 S 0 36.8 808
21:22:46 7 1017 0 4 W 0 36.7 812
21:25:46 7 1017 0 4 SW 0 36.9 803
21:28:46 7 1017 0 3 NW 0 36.8 817
21:31:45 7 1017 0 4 NO 0 37.1 819
21:34:45 7 1017 0 5 N 0 37 820
21:37:47 7 1017 0 2 NW 0 37.4 817
21:40:45 7 1017 0 5 O 0 37.8 817
21:43:46 7 1017 0 1 NO 0 38.1 820
21:46:45 7 1017 0 1 O 0 38.4 810
21:49:48 7 1017 0 6 O 0 38.8 796
21:52:47 7 1017 0 3 O 0 39 801
21:55:48 6 1017 0 1 SO 0 39.4 814
21:58:48 6 1017 0 2 NW 0 39.5 832
22:01:49 6 1017 0 5 O 0 39.7 838
22:04:46 6 1017 0 5 0 39.8 845
22:07:46 6 1017 0 3 S 0 39.9 839
22:10:48 6 1017 0 1 NW 0 40 843
22:13:47 6 1017 0 5 O 0 40.2 844
22:16:47 6 1017 0 2 W 0 40.3 862
22:19:45 6 1017 0 1 O 0 40.3 857
22:22:47 6 1017 0 4 N 0 40.5 860
22:25:46 6 1017 0 9 N 0 40.7 861
22:28:46 6 1017 0 2 O 0 40.9 862
22:31:48 6 1017 0 1 SW 0 40.9 864
22:34:47 6 1017 0 1 SO 0 41 869
22:37:46 6 1017 0 3 NO 0 41.2 860
22:40:47 6 1017 0 7 N 0 40.8 862
22:43:46 6 1017 0 4 N 0 40.6 849
22:46:47 6 1017 0 3 SO 0 40.9 853
22:49:47 6 1017 0 2 S 0 40.9 856
22:52:46 6 1017 0 1 0 41.1 865
22:55:47 6 1017 0 2 N 0 41.6 874
22:58:46 6 1017 0 2 SO 0 41.8 880
23:01:48 5 1017 0 6 NW 0 42.5 888
23:04:48 5 1017 0 6 N 0 42.8 893
23:07:48 5 1017 0 2 SO 0 43 896
23:10:48 5 1017 0 1 SO 0 43.1 897
23:13:48 5 1017 0 5 NO 0 43.1 889
23:16:46 5 1017 0 7 SO 0 43.2 892
23:19:49 5 1017 0 6 SO 0 43.2 892
23:22:47 5 1017 0 2 W 0 43.2 897
23:25:47 5 1017 0 5 NO 0 43.4 894
23:28:44 5 1017 0 1 N 0 43.6 903
23:31:47 5 1017 0 1 NO 0 44 899
23:34:47 5 1017 0 3 O 0 44.2 897
23:37:46 5 1017 0 11 S 0 44.1 894
23:40:47 5 1017 0 2 S 0 43.8 896
23:43:48 5 1017 0 12 SO 0 43.6 891
23:46:46 5 1017 0 6 NO 0 43.4 893
23:49:45 5 1017 0 5 O 0 43.7 885
23:52:47 5 1017 0 1 SW 0 43.6 875
23:55:45 5 1017 0 2 N 0 43.9 884
23:58:45 5 1017 0 5 0 44.1 893

Letzte Änderung : 22-Jul-2022
Copyright Jens Köhler, Wolfsburg, Obere Dorfstraße 10d